Voltar ao catálogo

QIANFAN-10

AtivoComunicaçõesPO
NORAD 60388·PAYLOAD·🇨🇳 China

Lançado Aug 6, 2024 de Taiyuan Satellite Launch Center

Loading…

Próximas Passagens (próximas 24 horas)

TLE

AtualizadoSource: Space-Track

Época: Sep 14, 2026, 13:45 UTC

1 60388U 24140K   26257.57308133  .00000013  00000-0  94229-6 0  9994
2 60388  88.9680 270.0901 0016844  97.6013 262.7052 13.51021694104702

Acompanhe QIANFAN-10 em tempo real com AllMySat

Download on the App Store